Regional Weather Roundup
Issued by NWS Albany, NY

Home | Current Version | Previous Version | Graphics & Text | Print | Product List | Glossary On
Versions: 1 2 3 4 5 6 7 8 9 10 11 12 13 14 15 16 17 18 19 20 21 22 23 24 25 26 27 28 29 30 31 32 33 34 35 36 37 38 39 40 41 42 43 44 45 46 47 48 49 50
000
ASUS41 KALY 211010
RWRALY

NEW YORK STATE HOURLY WEATHER ROUNDUP
NATIONAL WEATHER SERVICE ALBANY NY
600 AM EDT SUN SEP 21 2014

NOTE: "FAIR" INDICATES FEW OR NO CLOUDS BELOW 12,000 FEET WITH NO
SIGNIFICANT WEATHER AND/OR NO OBSTRUCTIONS TO VISIBILITY.

NYZ032-033-038>043-046>054-057>066-NYZ062>081-211100-
EAST


CITY           SKY/WX    TMP DP  RH WIND       PRES   REMARKS
ALBANY         PTCLDY    63  59  87 S9        29.89S
GLENS FALLS    FOG       51  50  96 CALM      29.88F VSB 1/2
POUGHKEEPSIE   CLOUDY    64  61  90 CALM      29.92S
MONTGOMERY     CLOUDY    61  59  93 CALM      29.92F
WHITE PLAINS   FOG       64  63  94 CALM      29.92F VSB 1/4
ISLIP          CLOUDY    69  67  93 SW6       29.92S
NEW YORK CITY  CLOUDY    67  66  97 E8        29.91F
CENTRAL PARK   CLOUDY    67  65  93 VRB6      29.94F FOG
$$

NYZ005>009-017-018-044>046-055-056-211100-
CENTRAL


CITY           SKY/WX    TMP DP  RH WIND       PRES   REMARKS
FULTON         CLOUDY    66  57  72 S10       29.76F
SYRACUSE       MOCLDY    67  57  70 S10       29.77F
ROME           CLOUDY    63  57  81 E3        29.83S
ELMIRA         MOCLDY    57  55  93 N3        29.83S
BINGHAMTON     CLEAR     59  56  89 S9        29.86F
MONTICELLO     CLOUDY    57  57 100 S7        29.95F
$$

NYZ026>034-041>043-211100-
NORTH


CITY           SKY/WX    TMP DP  RH WIND       PRES   REMARKS
WATERTOWN      CLOUDY    70  56  61 S13G22    29.72F
FORT DRUM      NOT AVBL
MASSENA        MOCLDY    69  58  67 S14G22    29.70F
SARANAC LAKE   PTCLDY    61  54  77 SW10G21   29.79F
PLATTSBURGH    PTCLDY    61  56  83 S8        29.78S
$$

NYZ001>004-010>016-019>021-211100-
WEST


CITY           SKY/WX    TMP DP  RH WIND       PRES   REMARKS
BUFFALO        CLOUDY    68  61  78 S7        29.71F
JAMESTOWN      MOCLDY    64  61  88 S8        29.78F
WELLSVILLE     LGT RAIN  63  57  81 SW9G17    29.85S
ROCHESTER      MOCLDY    69  59  70 SW12      29.73F
$$

             KEY
       WCI = WIND CHILL INDEX
       VSB = VISIBILITY
       HX  = HEAT INDEX
$$



USA.gov is the U.S. government's official web portal to all federal, state and local government web resources and services.